| time (UTC) | temp F | wind direction | speed knots | gust knots | rain 1hr in | rain 24hr in | rain mn in | humidity % | barometer mb |
| 20260506001504 | 60 | 165 | 14.8 | 22.6 | 0.17 | 0.24 | 0.24 | 45 | 990.2 |
| 20260506000004 | 62 | 121 | 19.1 | 29.5 | 0.19 | 0.19 | 0.19 | 49 | 990.2 |
| 20260505234525 | 60 | 133 | 8.7 | 16.5 | 0.11 | 0.17 | 0.11 | 35 | 989.5 |
| 20260505233005 | 62 | 166 | 7.0 | 20.0 | 0.09 | 0.16 | 0.10 | 38 | 989.6 |
| 20260505231525 | 63 | 184 | 16.5 | 31.3 | 0.07 | 0.17 | 0.07 | 39 | 989.2 |
| 20260505230005 | 63 | 128 | 16.5 | 28.7 | 0.00 | 0.13 | 0.00 | 33 | 988.8 |
| 20260505224505 | 64 | 191 | 7.8 | 15.6 | 0.00 | 0.15 | 0.00 | 31 | 988.7 |
| 20260505223005 | 65 | 171 | 14.8 | 26.9 | 0.00 | 0.20 | 0.00 | 32 | 988.5 |
| 20260505221505 | 66 | 155 | 15.6 | 27.8 | 0.00 | 0.25 | 0.00 | 36 | 988.5 |
| 20260505220026 | 65 | 201 | 11.3 | 20.0 | 0.00 | 0.26 | 0.00 | 29 | 987.9 |
| 20260505214505 | 67 | 189 | 15.6 | 26.9 | 0.00 | 0.26 | 0.00 | 33 | 987.9 |
| 20260505213005 | 67 | 235 | 13.0 | 32.2 | 0.00 | 0.26 | 0.00 | 35 | 987.7 |
| 20260505211505 | 67 | 257 | 14.8 | 24.3 | 0.00 | 0.26 | 0.00 | 32 | 987.3 |
| 20260505210005 | 68 | 241 | 21.7 | 33.9 | 0.00 | 0.26 | 0.00 | 37 | 987.2 |
| 20260505204504 | 67 | 261 | 20.9 | 33.9 | 0.00 | 0.26 | 0.00 | 30 | 986.4 |
| 20260505203005 | 68 | 272 | 20.9 | 28.7 | 0.00 | 0.26 | 0.00 | 32 | 986.2 |
| 20260505201504 | 69 | 244 | 23.5 | 42.6 | 0.00 | 0.26 | 0.00 | 40 | 986.6 |
| 20260505200004 | 67 | 223 | 25.2 | 34.8 | 0.00 | 0.26 | 0.00 | 31 | 985.6 |
| 20260505194504 | 67 | 185 | 21.7 | 33.0 | 0.00 | 0.26 | 0.00 | 34 | 985.6 |
| 20260505193004 | 66 | 143 | 20.0 | 28.7 | 0.00 | 0.26 | 0.00 | 30 | 985.2 |
| 20260505191504 | 66 | 116 | 14.8 | 25.2 | 0.00 | 0.26 | 0.00 | 31 | 985.2 |
| 20260505190004 | 64 | 121 | 10.4 | 21.7 | 0.00 | 0.26 | 0.00 | 21 | 984.4 |
| 20260505184504 | 65 | 134 | 9.6 | 20.0 | 0.00 | 0.26 | 0.00 | 29 | 984.7 |
| 20260505183004 | 64 | 172 | 8.7 | 19.1 | 0.00 | 0.26 | 0.00 | 29 | 984.4 |
| 20260505181504 | 65 | 175 | 13.9 | 26.1 | 0.00 | 0.26 | 0.00 | 38 | 984.6 |
| 20260505180004 | 64 | 124 | 20.0 | 26.1 | 0.00 | 0.26 | 0.00 | 38 | 984.2 |
| 20260505174504 | 62 | 137 | 6.1 | 14.8 | 0.00 | 0.26 | 0.00 | 32 | 984.0 |
| 20260505173004 | 61 | 216 | 15.6 | 26.1 | 0.00 | 0.26 | 0.00 | 34 | 983.7 |
| 20260505171504 | 61 | 203 | 7.8 | 18.2 | 0.00 | 0.26 | 0.00 | 38 | 983.9 |
| 20260505170004 | 60 | 229 | 13.0 | 26.9 | 0.00 | 0.26 | 0.00 | 43 | 984.1 |
| 20260505164503 | 59 | 196 | 16.5 | 22.6 | 0.00 | 0.26 | 0.00 | 44 | 983.8 |
| 20260505163024 | 57 | 247 | 7.0 | 17.4 | 0.00 | 0.26 | 0.00 | 42 | 983.9 |
| 20260505161504 | 58 | 248 | 20.9 | 29.5 | 0.00 | 0.26 | 0.00 | 54 | 984.0 |
| 20260505153004 | 53 | 206 | 7.8 | 13.9 | 0.00 | 0.26 | 0.00 | 51 | 984.2 |
| 20260505151524 | 53 | 194 | 15.6 | 21.7 | 0.00 | 0.26 | 0.00 | 58 | 984.4 |
| 20260505041503 | 41 | 133 | 3.5 | 9.6 | 0.00 | 0.26 | 0.26 | 68 | 1010.1 |
| 20260505040004 | 43 | 126 | 10.4 | 15.6 | 0.00 | 0.26 | 0.26 | 75 | 1011.0 |
| 20260505034503 | 45 | 192 | 6.1 | 13.9 | 0.00 | 0.26 | 0.26 | 75 | 1012.0 |
| 20260505033024 | 45 | 138 | 4.3 | 8.7 | 0.00 | 0.26 | 0.26 | 67 | 1012.2 |
| 20260505031503 | 46 | 105 | 3.5 | 9.6 | 0.00 | 0.26 | 0.26 | 65 | 1012.8 |
| 20260505030004 | 47 | 172 | 9.6 | 16.5 | 0.00 | 0.26 | 0.26 | 64 | 1013.1 |
| 20260505024504 | 48 | 178 | 8.7 | 13.9 | 0.00 | 0.26 | 0.26 | 58 | 1013.2 |
| 20260505023004 | 48 | 74 | 2.6 | 6.1 | 0.00 | 0.26 | 0.26 | 53 | 1013.7 |
| 20260505021504 | 51 | 197 | 7.8 | 12.2 | 0.00 | 0.26 | 0.26 | 57 | 1014.4 |
| 20260505020004 | 52 | 140 | 12.2 | 21.7 | 0.00 | 0.26 | 0.26 | 55 | 1014.6 |
| 20260505014504 | 52 | 101 | 1.7 | 11.3 | 0.00 | 0.26 | 0.26 | 50 | 1015.3 |
| 20260505013003 | 54 | 200 | 13.9 | 21.7 | 0.00 | 0.26 | 0.26 | 50 | 1015.1 |
| 20260505011503 | 54 | 200 | 10.4 | 18.2 | 0.00 | 0.26 | 0.26 | 44 | 1015.4 |
| 20260505010024 | 55 | 153 | 7.8 | 15.6 | 0.00 | 0.26 | 0.26 | 42 | 1015.8 |
| 20260505004503 | 58 | 125 | 13.9 | 22.6 | 0.06 | 0.26 | 0.26 | 48 | 1016.2 |
| 20260505003004 | 59 | 141 | 16.5 | 22.6 | 0.07 | 0.26 | 0.26 | 49 | 1016.7 |